Weather History for Lanai City, HI

Change the Weather History Date:

Wednesday, September 25, 2013

  Actual Average Record
Temperature  
Mean Temperature 74 °F -  
Max Temperature 81 °F 81 °F 86 °F (2001)
Min Temperature 68 °F 65 °F 59 °F (2011)
Cooling Degree Days 10    
Growing Degree Days 24 (Base 50)    
Moisture  
Dew Point 67 °F    
Average Humidity 82    
Maximum Humidity 94    
Minimum Humidity 60    
Precipitation  
Precipitation 0.83 in - - ()
Sea Level Pressure  
Sea Level Pressure 30.03 in    
Wind  
Wind Speed 8 mph (ENE)    
Max Wind Speed 17 mph    
Max Gust Speed 22 mph    
Visibility 9 miles    
Events Rain    
Averages and records for this station are not official NWS values.
T = Trace of Precipitation, MM = Missing Value Source: NWS Daily Summary

Daily Weather History Graph

Daily Weather History Graph

Search for Another Location

Airport:

Trip Planner

Search our weather history database for the weather conditions in past years. The results will help you decide how hot, cold, wet, or windy it might be!

Date:

Astronomy

Sep. 25, 2013 Rise Set
Actual Time 6:17 AM HST 6:20 PM HST
Civil Twilight 5:55 AM HST 6:42 PM HST
Nautical Twilight 5:29 AM HST 7:08 PM HST
Astronomical Twilight 5:03 AM HST 7:34 PM HST
Moon 11:14 PM HST (9/25) 11:53 AM HST (9/25)
Length of Visible Light 12h 47m
Length of Day
12h 03m
Waning Gibbous, 62% of the Moon is Illuminated
Sep 25
Waning Gibbous
Sep 26
Last Quarter
Oct 4
New
Oct 11
First Quarter
Oct 18
Full

Hourly Weather History & Observations

Time (HST) Temp. Heat Index Dew Point Humidity Pressure Visibility Wind Dir Wind Speed Gust Speed Precip Events Conditions
12:56 AM 68.9 °F - 65.8 °F 90% 30.01 in 10.0 mi ENE 9.2 mph - N/A   Clear
1:56 AM 70.0 °F - 65.8 °F 87% 29.99 in 10.0 mi ENE 6.9 mph - N/A   Scattered Clouds
2:56 AM 70.0 °F - 65.8 °F 87% 29.99 in 10.0 mi ENE 6.9 mph - N/A   Clear
3:56 AM 70.0 °F - 65.8 °F 87% 30.04 in 10.0 mi ENE 10.4 mph - N/A   Clear
4:56 AM 68.0 °F - 63.9 °F 87% 30.00 in 10.0 mi Calm Calm - N/A   Clear
5:56 AM 68.0 °F - 64.9 °F 90% 30.00 in 10.0 mi NNE 6.9 mph - N/A   Partly Cloudy
6:56 AM 68.0 °F - 64.9 °F 90% 30.01 in 10.0 mi East 6.9 mph - N/A   Clear
7:56 AM 74.8 °F - 65.8 °F 73% 30.03 in 10.0 mi NNE 10.4 mph - N/A   Clear
8:56 AM 79.9 °F - 65.8 °F 62% 30.04 in 10.0 mi NNE 6.9 mph - N/A   Clear
9:32 AM 77.0 °F - 66.2 °F 69% 30.11 in 9.0 mi NNE 9.2 mph - N/A   Overcast
9:45 AM 78.8 °F - 66.2 °F 65% 30.11 in 9.0 mi NE 9.2 mph - N/A   Overcast
9:56 AM 81.0 °F 83.0 °F 65.8 °F 60% 30.04 in - NE 8.1 mph - N/A   Mostly Cloudy
10:56 AM 73.4 °F - 66.2 °F 78% 30.11 in 10.0 mi ESE 10.4 mph - N/A Rain Heavy Rain
11:56 AM 77.9 °F - 66.9 °F 69% 30.02 in 10.0 mi Variable 5.8 mph - 0.08 in   Overcast
12:27 PM 77.0 °F - 66.2 °F 69% 30.08 in 10.0 mi Variable 3.5 mph - 0.00 in Rain Light Rain
12:36 PM 73.4 °F - 68.0 °F 83% 30.07 in 1.8 mi North 17.3 mph 21.9 mph 0.08 in Rain Heavy Rain
12:46 PM 71.6 °F - 68.0 °F 88% 30.08 in 1.0 mi Variable 4.6 mph - 0.45 in Rain Heavy Rain
12:56 PM 70.9 °F - 68.0 °F 91% 30.02 in 5.0 mi WSW 6.9 mph - 0.49 in Rain Rain
1:20 PM 71.6 °F - 69.8 °F 94% 30.06 in 1.8 mi Calm Calm - 0.12 in Rain Heavy Rain
1:27 PM 71.6 °F - 69.8 °F 94% 30.06 in 3.0 mi SW 4.6 mph - 0.18 in Rain Heavy Rain
1:56 PM 71.6 °F - 69.8 °F 94% 30.05 in 8.0 mi Calm Calm - N/A Rain Light Rain
2:13 PM 73.4 °F - 69.8 °F 88% 30.04 in 10.0 mi Variable 3.5 mph - 0.00 in Rain Light Rain
2:34 PM 77.0 °F - 69.8 °F 78% 30.03 in 10.0 mi NE 15.0 mph - 0.00 in   Mostly Cloudy
2:44 PM 77.0 °F - 68.0 °F 74% 30.02 in 10.0 mi NE 15.0 mph - 0.00 in   Mostly Cloudy
2:56 PM 79.0 °F - 68.0 °F 69% 29.96 in 10.0 mi NE 16.1 mph - 0.01 in   Overcast
3:28 PM 78.8 °F - 69.8 °F 74% 30.02 in 10.0 mi SSE 9.2 mph - N/A   Mostly Cloudy
3:56 PM 72.0 °F - 68.9 °F 90% 29.98 in 4.0 mi ESE 6.9 mph - 0.08 in Rain Heavy Rain
4:29 PM 71.6 °F - 69.8 °F 94% 30.03 in 9.0 mi Calm Calm - 0.16 in Rain Light Rain
4:56 PM 72.9 °F - 68.0 °F 85% 29.97 in 10.0 mi Calm Calm - 0.16 in   Clear
5:56 PM 73.9 °F - 66.9 °F 79% 29.98 in 10.0 mi NE 16.1 mph - 0.01 in   Clear
6:56 PM 72.0 °F - 65.8 °F 81% 30.00 in 10.0 mi East 9.2 mph - N/A   Mostly Cloudy
7:56 PM 70.9 °F - 66.9 °F 87% 30.00 in 10.0 mi East 4.6 mph - N/A   Clear
8:56 PM 68.9 °F - 65.8 °F 90% 30.00 in 10.0 mi East 6.9 mph - N/A   Clear
9:56 PM 68.9 °F - 65.8 °F 90% 30.01 in 10.0 mi East 4.6 mph - N/A   Clear
10:56 PM 69.8 °F - 66.2 °F 88% 30.06 in 10.0 mi ENE 9.2 mph - N/A   Mostly Cloudy
11:56 PM 68.9 °F - 65.8 °F 90% 29.99 in 10.0 mi ENE 3.5 mph - N/A   Overcast